Cody, WY

1:04 AM MDT on October 17, 2017 (GMT -0600)
Yellowstone Regional

Weather History for KCOD - January, 2014

Change the Weather History Date:

Friday, January 10, 2014

  Actual Average Record
Temperature  
Mean Temperature 36 °F -  
Max Temperature 41 °F 31 °F 60 °F (1928)
Min Temperature 30 °F 11 °F -25 °F (1962)
Degree Days  
Heating Degree Days 30    
Moisture  
Dew Point 15 °F    
Average Humidity 46    
Maximum Humidity 55    
Minimum Humidity 36    
Precipitation  
Precipitation 0.01 in - - ()
Sea Level Pressure  
Sea Level Pressure 29.67 in    
Wind  
Wind Speed 16 mph (WSW)    
Max Wind Speed 29 mph    
Max Gust Speed 41 mph    
Visibility 10 miles    
Events      
Averages and records for this station are not official NWS values.
T = Trace of Precipitation, MM = Missing Value Source: NWS Daily Summary

Daily Weather History Graph

Daily Weather History Graph

Search for Another Location

Airport or City:

Trip Planner

Search our weather history database for the weather conditions in past years. The results will help you decide how hot, cold, wet, or windy it might be!

Date:

Astronomy

Jan. 10, 2014 Rise Set
Actual Time 7:51 AM MST 4:56 PM MST
Civil Twilight 7:18 AM MST 5:29 PM MST
Nautical Twilight 6:42 AM MST 6:05 PM MST
Astronomical Twilight 6:07 AM MST 6:40 PM MST
Moon 1:05 PM MST (1/10) 2:58 AM MST (1/10)
Length of Visible Light 10h 10m
Length of Day
9h 05m
Waxing Gibbous, 75% of the Moon is Illuminated
Jan 10
Waxing Gibbous
Jan 15
Full
Jan 23
Last Quarter
Jan 30
New
Feb 6
First Quarter

Hourly Weather History & Observations

Time (MST) Temp. Windchill Dew Point Humidity Pressure Visibility Wind Dir Wind Speed Gust Speed Precip Events Conditions
12:15 AM 32.0 °F 20.1 °F 10.4 °F 41% 29.63 in 10.0 mi WSW 19.6 mph 29.9 mph N/A   Clear
12:35 AM 30.2 °F 18.1 °F 10.4 °F 44% 29.63 in 10.0 mi SW 18.4 mph 33.4 mph N/A   Clear
12:55 AM 32.0 °F 19.2 °F 10.4 °F 41% 29.63 in 10.0 mi WSW 23.0 mph 35.7 mph N/A   Clear
1:15 AM 30.2 °F 18.5 °F 8.6 °F 40% 29.63 in 10.0 mi West 17.3 mph 34.5 mph N/A   Clear
1:35 AM 30.2 °F 19.3 °F 8.6 °F 40% 29.62 in 10.0 mi WSW 15.0 mph 25.3 mph N/A   Clear
1:55 AM 30.2 °F 17.8 °F 8.6 °F 40% 29.63 in 10.0 mi WSW 19.6 mph 28.8 mph N/A   Clear
2:15 AM 30.2 °F 17.1 °F 8.6 °F 40% 29.63 in 10.0 mi SW 21.9 mph 40.3 mph 0.01 in   Scattered Clouds
2:35 AM 30.2 °F 19.3 °F 10.4 °F 44% 29.63 in 10.0 mi WSW 15.0 mph 38.0 mph 0.01 in   Partly Cloudy
2:55 AM 30.2 °F 17.8 °F 10.4 °F 44% 29.61 in 10.0 mi WSW 19.6 mph 36.8 mph 0.01 in   Clear
3:15 AM 32.0 °F 22.1 °F 8.6 °F 38% 29.63 in 10.0 mi WSW 13.8 mph 24.2 mph N/A   Clear
3:35 AM 32.0 °F 22.5 °F 8.6 °F 38% 29.63 in 10.0 mi West 12.7 mph 21.9 mph N/A   Clear
4:15 AM 30.2 °F - 10.4 °F 44% 29.62 in 10.0 mi Calm Calm - N/A   Clear
4:35 AM 30.2 °F 24.3 °F 12.2 °F 47% 29.62 in 10.0 mi WSW 5.8 mph - N/A   Clear
4:55 AM 30.2 °F 19.3 °F 10.4 °F 44% 29.61 in 10.0 mi South 15.0 mph 19.6 mph N/A   Partly Cloudy
5:15 AM 30.2 °F 18.1 °F 10.4 °F 44% 29.60 in 10.0 mi WSW 18.4 mph 25.3 mph N/A   Scattered Clouds
5:35 AM 30.2 °F 18.9 °F 10.4 °F 44% 29.61 in 10.0 mi WSW 16.1 mph 23.0 mph N/A   Partly Cloudy
6:15 AM 30.2 °F 20.2 °F 12.2 °F 47% 29.60 in 10.0 mi WSW 12.7 mph 32.2 mph N/A   Mostly Cloudy
6:35 AM 30.2 °F 18.9 °F 14.0 °F 51% 29.59 in 10.0 mi WSW 16.1 mph 25.3 mph N/A   Partly Cloudy
6:55 AM 30.2 °F 16.8 °F 15.8 °F 55% 29.58 in 10.0 mi West 23.0 mph 38.0 mph N/A   Clear
7:15 AM 30.2 °F 16.5 °F 15.8 °F 55% 29.57 in 10.0 mi WSW 24.2 mph 36.8 mph N/A   Clear
7:35 AM 30.2 °F 16.8 °F 15.8 °F 55% 29.57 in 10.0 mi West 23.0 mph 38.0 mph N/A   Clear
7:55 AM 32.0 °F 19.5 °F 15.8 °F 51% 29.58 in 10.0 mi WSW 21.9 mph 39.1 mph N/A   Partly Cloudy
8:15 AM 32.0 °F 19.5 °F 14.0 °F 48% 29.60 in 10.0 mi WSW 21.9 mph 32.2 mph N/A   Scattered Clouds
8:35 AM 33.8 °F 23.9 °F 15.8 °F 48% 29.60 in 10.0 mi West 15.0 mph 28.8 mph N/A   Partly Cloudy
8:55 AM 33.8 °F 28.6 °F 12.2 °F 41% 29.63 in 10.0 mi NE 5.8 mph - N/A   Partly Cloudy
9:15 AM 33.8 °F 26.4 °F 12.2 °F 41% 29.64 in 10.0 mi SW 9.2 mph - N/A   Scattered Clouds
9:35 AM 33.8 °F 30.8 °F 12.2 °F 41% 29.64 in 10.0 mi SSW 3.5 mph - N/A   Partly Cloudy
9:55 AM 33.8 °F 23.9 °F 14.0 °F 44% 29.64 in 10.0 mi WSW 15.0 mph 23.0 mph N/A   Partly Cloudy
10:15 AM 35.6 °F 25.9 °F 17.6 °F 48% 29.66 in 10.0 mi West 16.1 mph 29.9 mph N/A   Partly Cloudy
10:35 AM 35.6 °F 24.8 °F 17.6 °F 48% 29.64 in 10.0 mi WSW 19.6 mph 28.8 mph N/A   Partly Cloudy
10:55 AM 35.6 °F 24.2 °F 17.6 °F 48% 29.64 in 10.0 mi WSW 21.9 mph 34.5 mph N/A   Partly Cloudy
11:15 AM 37.4 °F 27.2 °F 17.6 °F 45% 29.63 in 10.0 mi West 19.6 mph 36.8 mph N/A   Partly Cloudy
11:35 AM 37.4 °F 27.8 °F 17.6 °F 45% 29.64 in 10.0 mi WSW 17.3 mph 31.1 mph N/A   Mostly Cloudy
11:55 AM 39.2 °F 30.8 °F 15.8 °F 39% 29.65 in 10.0 mi SW 15.0 mph 27.6 mph N/A   Overcast
12:15 PM 39.2 °F 31.2 °F 15.8 °F 39% 29.64 in 10.0 mi South 13.8 mph - N/A   Overcast
12:35 PM 39.2 °F 32.5 °F 17.6 °F 42% 29.63 in 10.0 mi WSW 10.4 mph 17.3 mph N/A   Overcast
12:55 PM 41.0 °F 32.5 °F 15.8 °F 36% 29.63 in 10.0 mi West 17.3 mph 25.3 mph N/A   Overcast
1:15 PM 39.2 °F 29.6 °F 15.8 °F 39% 29.62 in 10.0 mi West 19.6 mph 34.5 mph N/A   Partly Cloudy
1:35 PM 39.2 °F 29.6 °F 17.6 °F 42% 29.62 in 10.0 mi West 19.6 mph 39.1 mph N/A   Clear
1:55 PM 37.4 °F 25.2 °F 17.6 °F 45% 29.62 in 10.0 mi WSW 28.8 mph 41.4 mph N/A   Clear
2:15 PM 37.4 °F 27.2 °F 17.6 °F 45% 29.64 in 10.0 mi WSW 19.6 mph 34.5 mph N/A   Partly Cloudy
2:35 PM 37.4 °F 26.6 °F 17.6 °F 45% 29.64 in 10.0 mi WSW 21.9 mph 32.2 mph N/A   Partly Cloudy
2:55 PM 37.4 °F 26.1 °F 17.6 °F 45% 29.64 in 10.0 mi West 24.2 mph 38.0 mph N/A   Clear
3:15 PM 35.6 °F 24.8 °F 19.4 °F 52% 29.66 in 10.0 mi West 19.6 mph 31.1 mph N/A   Clear
3:35 PM 35.6 °F 25.2 °F 19.4 °F 52% 29.67 in 10.0 mi WSW 18.4 mph 31.1 mph N/A   Clear
3:55 PM 35.6 °F 25.5 °F 17.6 °F 48% 29.68 in 10.0 mi WSW 17.3 mph 26.5 mph N/A   Clear
4:15 PM 37.4 °F 27.8 °F 17.6 °F 45% 29.70 in 10.0 mi WSW 17.3 mph 24.2 mph N/A   Clear
4:35 PM 37.4 °F 29.3 °F 17.6 °F 45% 29.70 in 10.0 mi WSW 12.7 mph 18.4 mph N/A   Scattered Clouds
4:55 PM 37.4 °F 28.5 °F 17.6 °F 45% 29.72 in 10.0 mi West 15.0 mph 20.7 mph N/A   Partly Cloudy
5:15 PM 37.4 °F 29.3 °F 17.6 °F 45% 29.71 in 10.0 mi West 12.7 mph 24.2 mph N/A   Partly Cloudy
5:35 PM 35.6 °F 25.9 °F 17.6 °F 48% 29.72 in 10.0 mi West 16.1 mph 27.6 mph N/A   Partly Cloudy
5:55 PM 35.6 °F 25.5 °F 17.6 °F 48% 29.72 in 10.0 mi West 17.3 mph 23.0 mph N/A   Clear
6:15 PM 35.6 °F 26.2 °F 17.6 °F 48% 29.73 in 10.0 mi West 15.0 mph 24.2 mph N/A   Clear
6:35 PM 35.6 °F 25.9 °F 17.6 °F 48% 29.74 in 10.0 mi WSW 16.1 mph 29.9 mph N/A   Clear
6:55 PM 35.6 °F 27.1 °F 17.6 °F 48% 29.74 in 10.0 mi West 12.7 mph 20.7 mph N/A   Clear
7:15 PM 35.6 °F 28.6 °F 17.6 °F 48% 29.75 in 10.0 mi West 9.2 mph 21.9 mph N/A   Clear
7:35 PM 35.6 °F 25.9 °F 17.6 °F 48% 29.75 in 10.0 mi WSW 16.1 mph 23.0 mph N/A   Clear
7:55 PM 35.6 °F 29.2 °F 17.6 °F 48% 29.76 in 10.0 mi West 8.1 mph - N/A   Clear
8:15 PM 35.6 °F 30.7 °F 17.6 °F 48% 29.77 in 10.0 mi West 5.8 mph - N/A   Clear
8:35 PM 35.6 °F - 17.6 °F 48% 29.78 in 10.0 mi Calm Calm - N/A   Clear
8:55 PM 33.8 °F 30.8 °F 15.8 °F 48% 29.79 in 10.0 mi South 3.5 mph - N/A   Clear
9:15 PM 33.8 °F 27.7 °F 15.8 °F 48% 29.80 in 10.0 mi SSE 6.9 mph - N/A   Clear
9:35 PM 35.6 °F 30.7 °F 17.6 °F 48% 29.81 in 10.0 mi WSW 5.8 mph - N/A   Partly Cloudy
9:55 PM 37.4 °F 31.4 °F 19.4 °F 48% 29.81 in 10.0 mi NW 8.1 mph 17.3 mph N/A   Partly Cloudy
10:15 PM 35.6 °F - 19.4 °F 52% 29.82 in 10.0 mi Calm Calm - N/A   Mostly Cloudy
10:35 PM 37.4 °F 29.8 °F 19.4 °F 48% 29.82 in 10.0 mi West 11.5 mph 16.1 mph N/A   Partly Cloudy
10:55 PM 37.4 °F 30.8 °F 19.4 °F 48% 29.82 in 10.0 mi West 9.2 mph - N/A   Clear
11:15 PM 37.4 °F 32.1 °F 19.4 °F 48% 29.83 in 10.0 mi West 6.9 mph - N/A   Partly Cloudy
11:35 PM 39.2 °F 33.0 °F 17.6 °F 42% 29.82 in 10.0 mi West 9.2 mph 18.4 mph N/A   Mostly Cloudy
11:55 PM 39.2 °F 31.6 °F 17.6 °F 42% 29.82 in 10.0 mi WSW 12.7 mph 21.9 mph N/A   Mostly Cloudy